Hourly Weather Brisbane

Today, 4 March, Thursday

Time Temperature Precipitation Wind Pressure Humidity
00:00 +23°C° 0.1 mm 4 mps 757 mmHg 73%
01:00 +24°C° 0.1 mm 3 mps 756 mmHg 75%
02:00 +24°C° 0.1 mm 3 mps 756 mmHg 75%
03:00 +24°C° 0.1 mm 3 mps 756 mmHg 76%
04:00 +22°C° 0 mm 3 mps 756 mmHg 79%
05:00 +22°C° 0.2 mm 3 mps 756 mmHg 79%
06:00 +22°C° 0.2 mm 3 mps 757 mmHg 79%
07:00 +22°C° 0.2 mm 4 mps 757 mmHg 79%
08:00 +25°C° 0.4 mm 4 mps 757 mmHg 74%
09:00 +26°C° 0.4 mm 5 mps 757 mmHg 68%
10:00 +26°C° 0 mm 4 mps 758 mmHg 69%
11:00 +27°C° 0.2 mm 4 mps 757 mmHg 64%
12:00 +27°C° 0.2 mm 5 mps 757 mmHg 59%
13:00 +28°C° 0.2 mm 5 mps 756 mmHg 53%
14:00 +27°C° 0 mm 5 mps 756 mmHg 55%
15:00 +27°C° 0 mm 5 mps 756 mmHg 57%
16:00 +26°C° 0 mm 4 mps 755 mmHg 59%
17:00 +25°C° 0 mm 3 mps 756 mmHg 61%
18:00 +24°C° 0 mm 3 mps 756 mmHg 64%
19:00 +22°C° 0 mm 3 mps 756 mmHg 66%
20:00 +23°C° 0 mm 2 mps 757 mmHg 67%
21:00 +23°C° 0 mm 2 mps 757 mmHg 68%
22:00 +22°C° 0 mm 1 mps 757 mmHg 71%
23:00 +22°C° 0 mm 1 mps 756 mmHg 71%

Tomorrow, 5 March, Friday

Time Temperature Precipitation Wind Pressure Humidity
00:00 +22°C° 0 mm 1 mps 756 mmHg 72%
01:00 +22°C° 0 mm 1 mps 755 mmHg 73%
02:00 +21°C° 0 mm 1 mps 755 mmHg 75%
03:00 +21°C° 0 mm 1 mps 755 mmHg 76%
04:00 +21°C° 0 mm 1 mps 754 mmHg 78%
05:00 +21°C° 0 mm 1 mps 755 mmHg 76%
06:00 +21°C° 0 mm 1 mps 755 mmHg 75%
07:00 +22°C° 0 mm 1 mps 755 mmHg 73%
08:00 +24°C° 0 mm 1 mps 755 mmHg 65%
09:00 +27°C° 0 mm 1 mps 755 mmHg 57%
10:00 +29°C° 0 mm 1 mps 755 mmHg 49%
11:00 +30°C° 0 mm 1 mps 754 mmHg 45%
12:00 +32°C° 0 mm 2 mps 753 mmHg 41%
13:00 +34°C° 0 mm 2 mps 753 mmHg 38%
14:00 +32°C° 0 mm 2 mps 752 mmHg 40%
15:00 +32°C° 0 mm 2 mps 752 mmHg 42%
16:00 +31°C° 0 mm 2 mps 751 mmHg 44%
17:00 +30°C° 0 mm 2 mps 752 mmHg 50%
18:00 +28°C° 0 mm 3 mps 752 mmHg 57%
19:00 +26°C° 0 mm 3 mps 753 mmHg 63%
20:00 +26°C° 0 mm 3 mps 753 mmHg 66%
21:00 +25°C° 0 mm 2 mps 754 mmHg 68%
22:00 +25°C° 0 mm 2 mps 755 mmHg 71%
23:00 +25°C° 0 mm 2 mps 754 mmHg 72%

Day after tomorrow, 6 March, Saturday

Time Temperature Precipitation Wind Pressure Humidity
00:00 +24°C° 0 mm 2 mps 754 mmHg 73%
01:00 +24°C° 0 mm 2 mps 754 mmHg 74%
02:00 +22°C° 0.1 mm 3 mps 754 mmHg 75%
03:00 +22°C° 0.1 mm 3 mps 754 mmHg 77%
04:00 +21°C° 0.1 mm 3 mps 754 mmHg 79%
05:00 +22°C° 0.1 mm 3 mps 754 mmHg 77%
06:00 +22°C° 0.1 mm 3 mps 755 mmHg 76%
07:00 +24°C° 0.1 mm 3 mps 755 mmHg 75%
08:00 +25°C° 0.2 mm 4 mps 755 mmHg 71%
09:00 +26°C° 0.2 mm 4 mps 756 mmHg 67%
10:00 +27°C° 0.2 mm 4 mps 756 mmHg 62%
11:00 +27°C° 0.3 mm 4 mps 756 mmHg 62%
12:00 +27°C° 0.3 mm 4 mps 756 mmHg 62%
13:00 +27°C° 0.3 mm 4 mps 755 mmHg 62%
14:00 +27°C° 0.3 mm 4 mps 755 mmHg 63%
15:00 +27°C° 0.3 mm 4 mps 755 mmHg 65%
16:00 +26°C° 0.3 mm 4 mps 755 mmHg 66%
17:00 +25°C° 0.1 mm 4 mps 756 mmHg 69%
18:00 +23°C° 0.1 mm 4 mps 756 mmHg 72%
19:00 +24°C° 0.1 mm 3 mps 757 mmHg 76%
20:00 +22°C° 0 mm 3 mps 757 mmHg 77%
21:00 +22°C° 0 mm 3 mps 758 mmHg 77%
22:00 +22°C° 0 mm 3 mps 758 mmHg 78%
23:00 +22°C° 0.1 mm 3 mps 758 mmHg 79%

7 March, Sunday

Time Temperature Precipitation Wind Pressure Humidity
00:00 +22°C° 0.1 mm 3 mps 758 mmHg 80%
01:00 +23°C° 0.1 mm 2 mps 758 mmHg 81%
02:00 +21°C° 0.1 mm 2 mps 758 mmHg 82%
03:00 +21°C° 0.1 mm 2 mps 758 mmHg 84%
04:00 +21°C° 0.1 mm 2 mps 758 mmHg 85%
05:00 +21°C° 0.1 mm 2 mps 758 mmHg 84%
06:00 +21°C° 0.1 mm 2 mps 758 mmHg 82%
07:00 +23°C° 0.1 mm 2 mps 759 mmHg 80%
08:00 +24°C° 0.1 mm 2 mps 759 mmHg 73%
09:00 +26°C° 0.1 mm 2 mps 759 mmHg 65%
10:00 +28°C° 0.1 mm 2 mps 759 mmHg 57%
11:00 +28°C° 0.1 mm 2 mps 759 mmHg 56%
12:00 +29°C° 0.1 mm 3 mps 758 mmHg 54%
13:00 +29°C° 0.1 mm 3 mps 758 mmHg 53%
14:00 +28°C° 0.1 mm 3 mps 758 mmHg 56%
15:00 +28°C° 0.1 mm 3 mps 758 mmHg 59%
16:00 +27°C° 0.1 mm 3 mps 757 mmHg 61%
17:00 +26°C° 0 mm 3 mps 758 mmHg 65%
18:00 +25°C° 0 mm 3 mps 758 mmHg 69%
19:00 +24°C° 0 mm 2 mps 759 mmHg 73%
20:00 +24°C° 0 mm 2 mps 759 mmHg 73%
21:00 +24°C° 0 mm 2 mps 760 mmHg 74%
22:00 +24°C° 0 mm 1 mps 760 mmHg 75%
23:00 +24°C° 0 mm 2 mps 760 mmHg 75%

8 March, Monday

Time Temperature Precipitation Wind Pressure Humidity
00:00 +24°C° 0 mm 2 mps 760 mmHg 75%
01:00 +24°C° 0 mm 2 mps 760 mmHg 76%
02:00 +23°C° 0 mm 1 mps 760 mmHg 77%
03:00 +23°C° 0 mm 1 mps 760 mmHg 79%
04:00 +23°C° 0 mm 1 mps 760 mmHg 81%
05:00 +23°C° 0 mm 1 mps 760 mmHg 80%
06:00 +23°C° 0 mm 1 mps 760 mmHg 79%
07:00 +23°C° 0 mm 1 mps 761 mmHg 78%
08:00 +25°C° 0 mm 1 mps 761 mmHg 69%
09:00 +28°C° 0 mm 1 mps 761 mmHg 61%
10:00 +30°C° 0 mm 1 mps 761 mmHg 53%
11:00 +31°C° 0 mm 2 mps 760 mmHg 51%
12:00 +31°C° 0 mm 2 mps 760 mmHg 49%
13:00 +33°C° 0 mm 3 mps 759 mmHg 47%
14:00 +31°C° 0.1 mm 3 mps 759 mmHg 51%
15:00 +30°C° 0.1 mm 3 mps 758 mmHg 54%
16:00 +29°C° 0.1 mm 4 mps 758 mmHg 58%
17:00 +28°C° 0 mm 4 mps 758 mmHg 63%
18:00 +26°C° 0 mm 4 mps 758 mmHg 67%
19:00 +25°C° 0 mm 4 mps 759 mmHg 72%
20:00 +25°C° 0 mm 3 mps 759 mmHg 73%
21:00 +24°C° 0 mm 3 mps 760 mmHg 75%
22:00 +24°C° 0 mm 3 mps 760 mmHg 77%
23:00 +23°C° 0 mm 2 mps 760 mmHg 77%

9 March, Tuesday

Time Temperature Precipitation Wind Pressure Humidity
00:00 +23°C° 0 mm 2 mps 760 mmHg 78%
01:00 +23°C° 0 mm 2 mps 760 mmHg 78%
02:00 +21°C° 0 mm 2 mps 759 mmHg 80%
03:00 +22°C° 0 mm 1 mps 759 mmHg 81%
04:00 +22°C° 0 mm 1 mps 759 mmHg 82%
05:00 +22°C° 0 mm 1 mps 759 mmHg 80%
06:00 +23°C° 0 mm 1 mps 759 mmHg 78%
07:00 +23°C° 0 mm 1 mps 760 mmHg 76%
08:00 +26°C° 0 mm 1 mps 760 mmHg 67%
09:00 +28°C° 0 mm 2 mps 759 mmHg 59%
10:00 +30°C° 0 mm 2 mps 759 mmHg 51%
11:00 +31°C° 0 mm 2 mps 759 mmHg 48%
12:00 +32°C° 0 mm 2 mps 758 mmHg 45%
13:00 +34°C° 0 mm 3 mps 758 mmHg 43%
14:00 +34°C° 0.1 mm 3 mps 758 mmHg 47%
15:00 +33°C° 0.1 mm 3 mps 757 mmHg 50%
16:00 +31°C° 0.1 mm 3 mps 757 mmHg 54%
17:00 +29°C° 1.7 mm 3 mps 758 mmHg 63%
18:00 +27°C° 1.7 mm 3 mps 758 mmHg 71%
19:00 +25°C° 1.7 mm 3 mps 759 mmHg 80%
20:00 +25°C° 0.1 mm 3 mps 759 mmHg 81%
21:00 +25°C° 0.1 mm 2 mps 760 mmHg 83%
22:00 +24°C° 0.1 mm 2 mps 760 mmHg 84%
23:00 +24°C° 0.1 mm 2 mps 760 mmHg 85%
Show more